Location: L�Adrech
(44.2500°N, 6.4167°E)
Time: 22:27:43
(UTC+00:00)

STARLINK-61 - Pass Details

Date: 07 June 2020
Orbit: 505 x 517 km, 53.0° (Epoch: 05 July)

Event Time Altitude Azimuth Distance (km) Brightness Sun altitude
Exits shadow 01:37:37 41° 207° (SSW) 751 3.8 -17.2°
Maximum altitude 01:38:47 65° 142° (SE) 564 3.5 -17.1°
Drops below altitude 10° 01:42:41 10° 60° (ENE) 1,734 7.1 -16.7°
Sets 01:44:54 0° 58° (ENE) 2,625 8.3 -16.5°
